Showing default

MARS-1, 68830

Orbit data source: Space-Track

MARS-1, 68830 is an American payload satellite in SSO that was launched on Mon, 30 Mar 2026 UTC via an FALCON 9 launch vehicle from the Air Force Western Test Range (AFWTR). Payload-class satellites include a variety of spacecraft equipped with specific instruments for various scientific and technological missions. These include communications satellites like Starlink; space stations such as the ISS; scientific satellites like the Hubble; Earth observation satellites from companies like Planet Labs, Umbra, and HawkEye 360; GPS; miniature CubeSats for education and research; and military/defense satellites.

Loading next visibility...
Identifier
68830, 2026-067CW
Orbit
SSO
Country
Flag of USUS
Related business
None
Manufacturer
Unknown
Mission
Operational spacecraft
Bus & Motor
Unknown
Mass
Unknown
Launch date (UTC)
2026-03-30 (3 months ago)
Launch vehicle
FALCON 9
Launch site
Air Force Western Test Range (AFWTR)
Object type
Payload
Rocket body
Debris
Shape & HBR
Unknown shape, 14.5 m
Radar Cross Section
Medium (>0.1 m² and <1 m²)

Expand to show TLE details & history
Last TLE update: 10 hours ago

TLE from 10 hours ago
0 MARS-1
1 68830U 26067CW  26171.42433240  .00005841  00000-0  28155-3 0  9997
2 68830  97.4522 129.8456 0004811  95.7754 264.4029 15.19091759 52980
Epoch: 2026-06-20T10:11Z
TLE epoch observation values (Epoch: 2026-06-20T10:11:02.319Z)
Latitude
-0.00003°
Longitude
68.44679°
Altitude
511.997 km
Speed
7.608 km/s
True Right ascension
08h 39m 22s
True Declination
0° 00' 00"
Sunlit
Object was in daylight at epoch
Visualization orbit readout
Latitude
Unknown
Longitude
Unknown
Altitude
Unknown
Speed
Unknown
Apparent Right ascension
Unknown
Apparent Declination
Unknown
Sunlit
N/A
Visualization observer readout
Local Sidereal Time
07:15:06
Azimuth
Unknown
Elevation
Unknown
Doppler factor
Unknown
Orbital elements
Apogee altitude
508.865 km
Perigee altitude
502.242 km
Semi-major axis
6,883.69 km
Eccentricity
0.00048
Inclination
97.4522°
RAAN
129.8456°
Arg. of periapsis
95.7754°
True anomaly
264.34804°
Mean anomaly
264.4029°
Eccentric anomaly
264.37547°
Mean motion
3.80024 °/min
Orbital period
94.73 mins
BSTAR
0.00028155
Loading maneuver chart data...
Computing Atmospheric mass density...
Loading historical data...
Loading historical data...
Loading historical data...
Loading historical data...
Loading historical data...
Loading historical data...
Loading historical data...

Documentation

Showing up to 5 results
|